Location: *
(45.1961°N, 1.9694°E)
Time: 05:45:49
(UTC+00:00)

ASTEX 1 - Pass Details

Date: 25 August 2019
Orbit: 719 x 745 km, 92.7° (Epoch: 22 September)

Event Time Altitude Azimuth Distance (km) Brightness Sun altitude
Rises 19:28:09 0° 16° (NNE) 3,172 6.8 -8.3°
Reaches altitude 10° 19:30:49 10° 29° (NNE) 2,240 5.9 -8.8°
Maximum altitude 19:34:56 26° 86° (E) 1,419 4.4 -9.4°
Drops below altitude 10° 19:39:00 10° 142° (SE) 2,212 5.3 -10.1°
Enters shadow 19:39:02 10° 143° (SE) 2,221 5.3 -10.1°
